Showing default

SECOR 9 (EGRS 9), 2861

Orbit data source: Space-Track

SECOR 9 (EGRS 9), 2861 is an American payload satellite in LEO that was launched on Thu, 29 Jun 1967 UTC via a THOR BURNER 2 launch vehicle from the Air Force Western Test Range (AFWTR). Payload-class satellites include a variety of spacecraft equipped with specific instruments for various scientific and technological missions. These include communications satellites like Starlink; space stations such as the ISS; scientific satellites like the Hubble; Earth observation satellites from companies like Planet Labs, Umbra, and HawkEye 360; GPS; miniature CubeSats for education and research; and military/defense satellites.

Loading next visibility...
Identifier
2861, 1967-065A
Orbit
LEO
Country
Flag of USUS
Related business
Manufacturer
ITT
Mission
Spacecraft
Bus & Motor
SECOR, Unknown motor
Mass
18 kg wet, 18 kg dry
Launch date (UTC)
1967-06-29 (59 years ago)
Launch vehicle
THOR BURNER 2
Launch site
Air Force Western Test Range (AFWTR)
Object type
Payload
Rocket body
Debris
Shape & HBR
Unknown
Radar Cross Section
Medium (>0.1 m² and <1 m²)

Expand to show TLE details & history
Last TLE update: 12 hours ago

TLE from 12 hours ago
0 SECOR 9 (EGRS 9)
1  2861U 67065A   26124.90313747 -.00000020  00000-0 -13858-1 0  9990
2  2861  89.9763 314.1250 0072681 143.7123 216.8672  8.36661339797439
Epoch: 2026-05-04T21:40Z
TLE epoch observation values (Epoch: 2026-05-04T21:40:31.077Z)
Latitude
0.00002°
Longitude
126.20985°
Altitude
3,933.293 km
Speed
6.2 km/s
True Right ascension
20h 56m 30s
True Declination
0° 00' 00"
Sunlit
Object was in daylight at epoch
Visualization orbit readout
Latitude
Unknown
Longitude
Unknown
Altitude
Unknown
Speed
Unknown
Apparent Right ascension
Unknown
Apparent Declination
Unknown
Sunlit
N/A
Visualization observer readout
Local Sidereal Time
17:20:29
Azimuth
Unknown
Elevation
Unknown
Doppler factor
Unknown
Orbital elements
Apogee altitude
3,943.685 km
Perigee altitude
3,794.727 km
Semi-major axis
10,247.343 km
Eccentricity
0.00727
Inclination
89.9763°
RAAN
314.125°
Arg. of periapsis
143.7123°
True anomaly
216.37113°
Mean anomaly
216.8672°
Eccentric anomaly
216.6188°
Mean motion
2.09231 °/min
Orbital period
172.06 mins
BSTAR
-0.013858
Loading maneuver chart data...
Computing Atmospheric mass density...
Loading historical data...
Loading historical data...
Loading historical data...
Loading historical data...
Loading historical data...
Loading historical data...
Loading historical data...
Other satellites on launch #65 in the year 1967 (1967-06-29 UTC)

Documentation

Showing up to 5 results
|